AirNav   Textron
 
 407 users online  

IL44 Arrow Heliport
Fox Lake, Illinois, USA

GOING TO FOX LAKE?


FAA INFORMATION EFFECTIVE 14 SEPTEMBER 2017

Location

FAA Identifier: IL44
Lat/Long: 42-24-12.0740N / 088-11-15.3080W
42-24.201233N / 088-11.255133W
42.4033539 / -88.1875856
(estimated)
Elevation: 738 ft. / 225 m (estimated)
Variation: 01W (1985)
Time zone: UTC -5 (UTC -6 during Standard Time)
Zip code: 60020

Heliport Operations

Heliport use: Private use. Permission required prior to landing
Activation date: 06/1988
Control tower: no
ARTCC: CHICAGO CENTER
FSS: KANKAKEE FLIGHT SERVICE STATION
Attendance: UNATNDD
Wind indicator: yes
Segmented circle: no

Heliport Communications

WX ASOS at UGN (14 nm E): PHONE 847-782-0876
WX ASOS at ENW (16 nm NE): PHONE 262-652-7730
WX AWOS-3 at BUU (18 nm N): 114.5 (262-757-0907)

Nearby radio navigation aids

VOR radial/distance  VOR name  Freq  Var
OBKr318/15.1NORTHBROOK VOR/DME113.0002W
BUUr165/17.9BURBUN VOR/DME114.5001W
ORDr331/27.9CHICAGO O'HARE VOR/DME113.9002E
DPAr011/31.6DUPAGE VOR/DME108.4002E

 
NDB name  Hdg/Dist  Freq  Var  ID
CODEE219/11.838902WEN . -.
LAKE LAWN135/25.240400WLVV .-.. ...- ...-
JANESVILLE106/39.837503EJVL .--- ...- .-..

Heliport Services

Runway Information

Helipad H1

Dimensions: 60 x 60 ft. / 18 x 18 m
Surface: asphalt
Traffic pattern: leftleft

Heliport Ownership and Management from official FAA records

Ownership: Privately-owned
Owner: TRINSKI & SON
100 N ROUTE 12
FOX LAKE, IL 60020
Phone (847) 366-6453
Manager: MIKE TRINSKI
100 N ROUTE 12
FOX LAKE, IL 60020
Phone (847) 366-6453

Heliport Operational Statistics

Aircraft based on the field: 2
Single engine airplanes: 1
Helicopters: 1
    

Instrument Procedures

There are no published instrument procedures at IL44.

Some nearby airports with instrument procedures:

C81 - Campbell Airport (7 nm SE)
10C - Galt Field Airport (8 nm W)
3CK - Lake in the Hills Airport (13 nm SW)
KUGN - Waukegan Regional Airport (14 nm E)
C02 - Grand Geneva Resort Airport (16 nm NW)
KENW - Kenosha Regional Airport (16 nm NE)
KBUU - Burlington Municipal Airport (18 nm N)
 
Loc | Ops | Rwys | IFR | FBO | Links
Com | Nav | Svcs | Stats | Notes


 
Area around IL44 (Arrow Heliport)
 
Road maps at: MapQuest Bing Google
 
Aerial photo
No photo
 
Sectional chart

 
Airport distance calculator
Flying to Arrow Heliport? Find the distance to fly.

From to IL44

Sunrise and sunset
Times for 23-Sep-2017
 Local
(UTC-5)
 Zulu
(UTC)
Morning civil twilight06:1411:14
Sunrise06:4211:42
Sunset18:4823:48
Evening civil twilight19:1600:16

Current date and time
Zulu (UTC)  23-Sep-2017 10:33:40
Local (UTC-5)  23-Sep-2017 05:33:40
 
METAR
KUGN 
14nm E 
230955Z AUTO 00000KT 6SM BR CLR 22/19 A3004 RMK AO2 SLP158 T02170194
KENW 
16nm NE 
230953Z AUTO 25005KT 10SM CLR 19/18 A3004 RMK AO2 SLP169 T01940183
KBUU 
18nm N 
231015Z AUTO 13003KT 5SM BR CLR 17/17 A3005 RMK AO2 T01680168
KPWK 
21nm SE 
231014Z AUTO 00000KT 1 3/4SM BR CLR 22/20 A3006 RMK AO2 T02170200
KRAC 
27nm NE 
230953Z AUTO 24006KT 10SM CLR 24/19 A3005 RMK AO2 SLP172 T02390189
KORD 
28nm SE 
230951Z 19004KT 10SM CLR 23/18 A3004 RMK AO2 SLP165 T02330183
TAF
KENW 
16nm NE 
230520Z 2306/2406 18004KT P6SM SKC FM231500 20006KT P6SM FEW050 FM232000 14009KT P6SM SKC FM240000 17004KT P6SM SKC
NOTAMs
Click for the latest NOTAMs
NOTAMs are issued by the DoD/FAA and will open in a separate window not controlled by AirNav.

 

 
 

Would you like to see your business listed on this page?

 If your business provides an interesting product or service to pilots, flight crews, aircraft, or users of the Arrow Heliport, you should consider listing it here.  To start the listing process, click on the button below
 
Add a business
 

Other Pages about Arrow Heliport

Update a link
 
Copyright © AirNav, LLC. All rights reserved. Privacy Policy  Contact